Location: Greenwich
(51.4790°N, 0.0090°E)
Time: 00:33:54
(UTC+01:00)

Transit 2A - Pass Details

Date: 01 May 2024
Orbit: 594 x 957 km, 66.7° (Epoch: 19 May)

Event Time Altitude Azimuth Distance (km) Brightness Sun altitude
Exits shadow 04:31:14 - 190° (S) 2,540 8.3 -8.7°
Reaches altitude 10° 04:32:41 10° 184° (S) 1,993 7.8 -8.6°
Maximum altitude 04:36:49 38° 116° (ESE) 1,003 6.9 -8.0°
Drops below altitude 10° 04:41:19 10° 49° (NE) 2,171 10.1 -7.5°
Sets 04:43:54 0° 42° (NE) 3,157 11.2 -7.2°
